[Iaude] MPEC V35: 2023 VT [a=1.47,e=0.38,i=3.2,H=26.2]

mpec at marsden.cfa.harvard.edu mpec at marsden.cfa.harvard.edu
Sat Nov 4 13:39:36 EDT 2023


M.P.E.C. 2023-V35                              Issued 2023 November 4, 17:37 UT

     The Minor Planet Electronic Circulars contain information on unusual
         minor planets, routine data on comets and natural satellites,
         and occasional editorial announcements.  They are published
    on behalf of Division F of the International Astronomical Union by the
          Minor Planet Center, Smithsonian Astrophysical Observatory,
                          Cambridge, MA 02138, U.S.A.
			  
             Prepared using the Tamkin Foundation Computer Network

                              MPC at CFA.HARVARD.EDU
            URL https://www.minorplanetcenter.net/    ISSN 1523-6714

                                    2023 VT                                     


Observations:
     K23V00T* C2023 11 03.26517901 11 55.414+29 22 31.44         20.92wXEV035F51
     K23V00T  C2023 11 03.27656701 12 02.634+29 22 43.92         21.13wXEV035F51
     K23V00T  C2023 11 03.29930601 12 16.936+29 23 07.49         20.70wXEV035F51
     K23V00T 1C2023 11 03.31404401 12 17.442+29 22 45.37         21.13GVEV035G96
     K23V00T 1C2023 11 03.31918701 12 20.704+29 22 47.71         20.43GVEV035G96
     K23V00T 1C2023 11 03.32433101 12 23.893+29 22 51.67         21.10GVEV035G96
     K23V00T 1C2023 11 03.32949101 12 27.212+29 22 54.08         20.51GVEV035G96
     K23V00T  C2023 11 03.36971501 12 52.473+29 23 07.61         20.6 GVEV035H01
     K23V00T  C2023 11 03.37467701 12 55.667+29 23 09.73         20.3 GVEV035H01
     K23V00T  C2023 11 03.38163801 13 07.549+29 24 18.33         20.70GVEV035F51
     K23V00T  C2023 11 03.38245501 13 08.033+29 24 18.86         20.64GVEV035F51
     K23V00T  C2023 11 03.38511301 13 02.385+29 23 14.28         20.6 GVEV035H01
     K23V00T  C2023 11 03.39039001 13 05.792+29 23 16.32         21.0 GVEV035H01
     K23V00T KC2023 11 03.42627201 13 29.204+29 23 37.46         20.72GVEV035I52
     K23V00T KC2023 11 03.42822301 13 30.475+29 23 38.65         20.67GVEV035I52
     K23V00T KC2023 11 03.43017501 13 31.750+29 23 39.48         20.89GVEV035I52
     K23V00T KC2023 11 03.43211001 13 33.071+29 23 39.80         21.12GVEV035I52
     K23V00T KC2023 11 04.12952201 21 12.690+29 31 20.32         21.28GVEV035I52
     K23V00T KC2023 11 04.13080301 21 13.381+29 31 21.61         20.74GVEV035I52
     K23V00T KC2023 11 04.13209501 21 14.130+29 31 22.04         21.04GVEV035I52
     K23V00T KC2023 11 04.13337301 21 14.810+29 31 23.30         20.95GVEV035I52

Observer details:
F51 Pan-STARRS 1, Haleakala.  Observers J. Bulger, T. Lowe, P. Minguez, A.
    Schultz, I. Smith.  Measurers K. Chambers, T. de Boer, J. Fairlamb, H.
    Gao, M. Huber, C.-C. Lin, E. Magnier, Y. Ramanjooloo, R. Wainscoat, R.
    Weryk.  1.8-m Ritchey-Chretien + CCD.
G96 Mt. Lemmon Survey.  Observer J. B. Fazekas.  Measurers E. C. Beshore, D.
    Fay, J. B. Fazekas, D. C. Fuls, A. R. Gibbs, A. D. Grauer, H. Groeller, J.
    K. Hogan, R. A. Kowalski, S. M. Larson, G. J. Leonard, D. Rankin, R. L.
    Seaman, F. C. Shelly, K. W. Wierzchos.  1.5-m reflector + 10K CCD.
H01 Magdalena Ridge Observatory, Socorro.  Observers W. H. Ryan, E. V. Ryan.
    Measurer W. H. Ryan.  2.4-m f/8.9 Ritchey-Chretien + CCD.
I52 Steward Observatory, Mt. Lemmon Station.  Observer D. Rankin.  Measurers
    E. C. Beshore, D. Fay, J. B. Fazekas, D. C. Fuls, A. R. Gibbs, A. D.
    Grauer, H. Groeller, J. K. Hogan, R. A. Kowalski, S. M. Larson, G. J.
    Leonard, D. Rankin, R. L. Seaman, F. C. Shelly, K. W. Wierzchos.  1.0-m
    prime focus + CCD.

Orbital elements:
2023 VT                                                  Earth MOID = 0.0075 AU
Epoch 2023 Sept. 13.0 TT = JDT 2460200.5                Bell                    
M 357.90405              (2000.0)            P               Q                  
n   0.55317563     Peri.  320.32691     +0.94888896     +0.31496558             
a   1.4696955      Node    21.34032     -0.27367483     +0.85294464             
e   0.3842635      Incl.    3.17571     -0.15719994     +0.41627170             
P   1.78           H   26.25          G   0.15           U   8                  
Residuals in seconds of arc
231103 F51  0.3+  0.1-    231103 H01  0.1+  0.1+    231103 I52  0.2-  0.1+
231103 F51  0.2+  0.1+    231103 H01  0.2+  0.0     231103 I52  0.2-  0.3+
231103 F51  0.3+  0.2+    231103 F51  0.4-  0.2+    231103 I52  0.5+  0.1-
231103 G96  0.1-  0.3+    231103 F51  0.6-  0.1+    231104 I52  0.1-  0.0
231103 G96  0.1+  0.5-    231103 H01  0.1+  0.1+    231104 I52  0.2-  0.3+
231103 G96  0.7-  0.5+    231103 H01  0.1+  0.1-    231104 I52  0.3+  0.3-
231103 G96  0.0   0.0     231103 I52  0.2-  0.3-    231104 I52  0.0   0.0

Ephemeris:
2023 VT                  a,e,i = 1.47, 0.38, 3                   q = 0.9049
Date    TT    R. A. (2000) Decl.     Delta      r    Elong.  Phase     V
2023 10 05    15 42 46.0 -26 39 07   0.1166  0.9274    48.7   125.9    26.7
...
2023 10 20    17 31 38.1 -19 12 42   0.03786 0.9761    57.4   120.8    24.0
...
2023 10 28    22 43 14.1 +20 44 40   0.02559 1.0107   130.8    48.1    20.1
...
2023 11 03    01 08 38.2 +29 18 29   0.05153 1.0396   156.2    22.6    21.0
2023 11 04    01 19 47.4 +29 30 35   0.05669 1.0446   157.6    21.2    21.1
2023 11 05    01 29 08.7 +29 37 23   0.06196 1.0497   158.7    20.1    21.3
...
2023 11 11    02 03 32.1 +29 31 33   0.09527 1.0812   161.8    16.6    22.2
...
2023 11 19    02 25 01.7 +28 53 12   0.1435  1.1254   161.4    16.3    23.2
...
2023 12 04    02 46 37.1 +27 43 56   0.2467  1.2124   154.0    20.8    24.7

M. P. C. Staff               (C) Copyright 2023 MPC           M.P.E.C. 2023-V35




More information about the Iaude mailing list